Home   Weather   Forchheim   Past weeks

Flag for Germany Past Weather in Forchheim, Bavaria, Germany — Yesterday and Last 2 Weeks

Now
70 °F

Sunny.


Feels Like: 70 °F
Forecast: 53 / 73 °F
Wind: 17 mph from West

Location: Nuernberg

Current Time: Sep 28, 2016 at 5:25:36 PM

Latest Report: Sep 28, 2016 at 4:50 PM


Visibility: 10 mi

Pressure: 30.30 "Hg

Humidity: 43%

Dew Point: 46 °F

Location of ForchheimLocation

Past Weather in Forchheim — Graph

°F

Forchheim Temperature Yesterday

Maximum temperature yesterday: 70 °F (at 3:20 PM)
Minimum temperature yesterday: 50 °F (at 6:50 AM)
Average temperature yesterday: 58 °F

High & Low Weather Summary for the Past Weeks

 TemperatureHumidityPressure
High86 °F (Sep 13, 4:20 PM)100% (Sep 17, 9:50 AM)30.39 "Hg (Sep 17, 9:50 AM)
Low41 °F (Sep 22, 5:50 AM)27% (Sep 14, 2:20 PM)29.83 "Hg (Sep 15, 3:50 PM)
Average59 °F79%30.09 "Hg
* Reported Sep 13 4:20 PM — Sep 28 4:20 PM, Forchheim, Weather by CustomWeather, © 2016

Note: Actual official high and low records may vary slightly from our data, if they occured in-between our weather recording intervals... More about our weather records

Advertising

Forchheim Weather History for the Previous 24 Hours

Scroll right to see more
 ConditionsComfort  
Time TempWeatherWind HumidityBarometerVisibility
4:20 PM
Wed, Sep 28
70 °FPartly sunny.15 mph40%30.30 "HgN/A
3:50 PM70 °FPartly sunny.17 mph50%30.30 "HgN/A
3:20 PM70 °FPartly sunny.18 mph50%30.33 "HgN/A
2:50 PM70 °FScattered clouds.15 mph53%30.33 "HgN/A
2:20 PM70 °FScattered clouds.17 mph57%30.33 "HgN/A
1:50 PM70 °FScattered clouds.14 mph57%30.33 "HgN/A
1:20 PM70 °FScattered clouds.13 mph57%30.36 "HgN/A
12:50 PM68 °FScattered clouds.10 mph60%30.36 "HgN/A
12:20 PM66 °FScattered clouds.10 mph68%30.36 "HgN/A
11:50 AM66 °FPassing clouds.6 mph68%30.39 "HgN/A
11:20 AM64 °FPassing clouds.5 mph73%30.39 "HgN/A
10:50 AM61 °FPassing clouds.3 mph83%30.39 "HgN/A
10:20 AM59 °FClear.2 mph88%30.39 "Hg6 mi
9:50 AM57 °FClear.3 mph94%30.39 "Hg4 mi
9:20 AM54 °FFog.3 mph100%30.36 "Hg2 mi
8:50 AM52 °FFog.5 mph100%30.36 "Hg2 mi
8:20 AM50 °FFog.5 mph100%30.36 "Hg1 mi
7:50 AM48 °FFog.3 mph100%30.36 "Hg0 mi
7:20 AM48 °FFog.2 mph100%30.36 "Hg0 mi
6:50 AM48 °FFog.3 mph100%30.36 "Hg2 mi
6:20 AM48 °FFog.2 mph100%30.36 "Hg3 mi
5:50 AM48 °FFog.5 mph100%30.36 "Hg4 mi
5:20 AM48 °FFog.6 mph100%30.36 "Hg4 mi
4:50 AM48 °FFog.2 mph100%30.36 "Hg4 mi
4:20 AM50 °FFog.3 mph100%30.36 "Hg5 mi
3:50 AM50 °FFog.6 mph100%30.36 "Hg5 mi
3:20 AM50 °FFog.5 mph100%30.36 "Hg5 mi
2:50 AM50 °FFog.6 mph100%30.36 "Hg5 mi
2:20 AM50 °FFog.3 mph100%30.36 "Hg5 mi
1:50 AM50 °FFog.3 mph100%30.36 "Hg5 mi
1:20 AM52 °FFog.1 mph100%30.36 "Hg5 mi
12:50 AM52 °FFog.1 mph94%30.36 "Hg6 mi
12:20 AM54 °FFog.5 mph100%30.36 "HgN/A
11:50 PM
Tue, Sep 27
52 °FFog.2 mph100%30.36 "HgN/A
11:20 PM54 °FClear.1 mph94%30.36 "Hg10 mi
10:50 PM55 °FClear.1 mph94%30.36 "Hg10 mi
10:20 PM55 °FPassing clouds.3 mph94%30.36 "HgN/A
9:50 PM57 °FClear.3 mph88%30.36 "Hg10 mi
9:20 PM55 °FClear.1 mph94%30.36 "Hg10 mi
8:50 PM59 °FClear.1 mph82%30.36 "Hg10 mi
8:20 PM57 °FCool.1 mph88%30.33 "HgN/A
7:50 PM59 °FClear.1 mph82%30.33 "Hg10 mi
7:20 PM63 °FClear.1 mph73%30.33 "Hg10 mi
6:50 PM64 °FSunny.1 mph68%30.33 "Hg10 mi
6:20 PM68 °FSunny.1 mph56%30.33 "Hg10 mi
5:50 PM70 °FPassing clouds.3 mph53%30.30 "HgN/A
5:20 PM70 °FPassing clouds.3 mph53%30.30 "HgN/A
Weather by CustomWeather, © 2016

See weather overviewHow to use our weather pages